Weather History for Trapani, Italy

Change the Weather History Date:

Saturday, November 24, 2012

  Actual Average Record
Temperature  
Mean Temperature 59 °F -  
Max Temperature 68 °F 62 °F 73 °F (2007)
Min Temperature 50 °F 50 °F 42 °F (1998)
Degree Days  
Heating Degree Days 6    
Growing Degree Days 9 (Base 50)    
Moisture  
Dew Point 55 °F    
Average Humidity 87    
Maximum Humidity 94    
Minimum Humidity 64    
Precipitation  
Precipitation 0.00 in 0.09 in - ()
Sea Level Pressure  
Sea Level Pressure 30.20 in    
Wind  
Wind Speed 1 mph ()    
Max Wind Speed 4 mph    
Max Gust Speed -    
Visibility 7.3 miles    
Events      
Averages and records for this station are not official NWS values.
T = Trace of Precipitation, MM = Missing Value Source: Averaged Metar Reports

Daily Weather History Graph

Daily Weather History Graph

Search for Another Location

Airport:

Trip Planner

Search our weather history database for the weather conditions in past years. The results will help you decide how hot, cold, wet, or windy it might be!

Date:

Astronomy

Nov. 24, 2012 Rise Set
Actual Time 7:00 AM CET 4:53 PM CET
Civil Twilight 6:31 AM CET 5:21 PM CET
Nautical Twilight 5:59 AM CET 5:53 PM CET
Astronomical Twilight 5:27 AM CET 6:25 PM CET
Moon 2:26 PM CET (11/24) 3:04 AM CET (11/24)
Length of Visible Light 10h 50m
Length of Day
9h 52m
Waxing Gibbous, 85% of the Moon is Illuminated
Nov 24
Waxing Gibbous
Nov 28
Full
Dec 6
Last Quarter
Dec 13
New
Dec 20
First Quarter

Hourly Weather History & Observations

Time (CET) Temp. Dew Point Humidity Pressure Visibility Wind Dir Wind Speed Gust Speed Precip Events Conditions
12:55 AM 53.6 °F 51.8 °F 94% 30.21 in - Calm Calm - N/A   Clear
1:00 AM 54 °F 52 °F 89% 30.23 in 9 mi Calm Calm - -   Clear
1:55 AM 53.6 °F 51.8 °F 94% 30.21 in - Calm Calm - N/A   Clear
2:55 AM 51.8 °F 50.0 °F 94% 30.21 in - ESE 1.2 mph - N/A   Clear
3:55 AM 51.8 °F 50.0 °F 94% 30.21 in - SE 1.2 mph - N/A   Clear
5:55 AM 50.0 °F 48.2 °F 94% 30.21 in - Calm Calm - N/A   Clear
6:55 AM 50.0 °F 48.2 °F 94% 30.21 in 6.2 mi Calm Calm - N/A   Partly Cloudy
7:00 AM 50 °F 48 °F 90% 30.22 in 10 mi Calm Calm - -   Scattered Clouds
7:55 AM 51.8 °F 50.0 °F 94% 30.21 in 6.2 mi Calm Calm - N/A   Partly Cloudy
8:55 AM 59.0 °F 57.2 °F 94% 30.21 in 6.2 mi Calm Calm - N/A   Partly Cloudy
9:55 AM 64.4 °F 62.6 °F 94% 30.21 in 6.2 mi Calm Calm - N/A   Partly Cloudy
10:55 AM 66.2 °F 59.0 °F 78% 30.21 in 6.2 mi NW 2.3 mph - N/A   Partly Cloudy
11:55 AM 66.2 °F 57.2 °F 73% 30.21 in 6.2 mi NW 3.5 mph - N/A   Scattered Clouds
12:55 PM 68.0 °F 59.0 °F 73% 30.21 in 6.2 mi NNW 3.5 mph - N/A   Scattered Clouds
1:00 PM 68 °F 59 °F 64% 30.21 in 12 mi NNW 3.5 mph - -   Partly Cloudy
1:55 PM 68.0 °F 57.2 °F 68% 30.18 in 6.2 mi NNW 3.5 mph - N/A   Scattered Clouds
2:55 PM 68.0 °F 57.2 °F 68% 30.18 in 6.2 mi NNW 3.5 mph - N/A   Scattered Clouds
3:55 PM 68.0 °F 59.0 °F 73% 30.18 in 6.2 mi NNW 2.3 mph - N/A   Partly Cloudy
4:55 PM 64.4 °F 60.8 °F 88% 30.18 in 6.2 mi North 1.2 mph - N/A   Partly Cloudy
5:55 PM 62.6 °F 59.0 °F 88% 30.18 in 6.2 mi Calm Calm - N/A   Partly Cloudy
6:55 PM 59.0 °F 55.4 °F 88% 30.21 in 6.2 mi Calm Calm - N/A   Partly Cloudy
7:00 PM 59 °F 56 °F 85% 30.21 in 12 mi Calm Calm - -   Scattered Clouds
7:55 PM 57.2 °F 55.4 °F 94% 30.18 in - Calm Calm - N/A   Clear
8:55 PM 57.2 °F 55.4 °F 94% 30.18 in - East 2.3 mph - N/A   Clear
9:55 PM 55.4 °F 53.6 °F 94% 30.18 in - ESE 2.3 mph - N/A   Clear
10:55 PM 55.4 °F 53.6 °F 94% 30.18 in - East 3.5 mph - N/A   Clear
11:55 PM 55.4 °F 53.6 °F 94% 30.21 in - Calm Calm - N/A   Clear